GW1995 Weather Reports


time (UTC)temp
F
wind
direction
speed
knots
gust
knots
rain 1hr
in
rain 24hr
in
rain mn
in
humidity
%
barometer
mb
20260510233704 58 28 3.5 6.1 0.00 0.00 0.00 29 1019.4
20260510233201 58 68 2.6 7.0 0.00 0.00 0.00 29 1019.6
20260510232657 59 51 2.6 6.1 0.00 0.00 0.00 28 1019.5
20260510232152 59 321 1.7 5.2 0.00 0.00 0.00 27 1019.6
20260510231650 58 60 3.5 6.1 0.00 0.00 0.00 28 1019.8
20260510231147 58 330 3.5 4.3 0.00 0.00 0.00 28 1019.6
20260510230643 58 303 2.6 5.2 0.00 0.00 0.00 28 1019.7
20260510230138 59 64 4.3 7.0 0.00 0.00 0.00 28 1019.5
20260510225635 59 223 2.6 5.2 0.00 0.00 0.00 28 1019.6
20260510225126 59 353 6.1 11.3 0.00 0.00 0.00 28 1019.8
20260510224621 59 306 6.1 7.8 0.00 0.00 0.00 29 1019.8
20260510224118 59 259 0.9 2.6 0.00 0.00 0.00 27 1019.8
20260510223616 60 37 2.6 5.2 0.00 0.00 0.00 28 1019.6
20260510223113 59 272 3.5 4.3 0.00 0.00 0.00 28 1019.7
20260510222609 60 281 4.3 7.0 0.00 0.00 0.00 28 1019.8
20260510222106 59 280 3.5 8.7 0.00 0.00 0.00 29 1019.5
20260510221601 60 87 3.5 4.3 0.00 0.00 0.00 28 1019.7
20260510221058 60 286 0.9 2.6 0.00 0.00 0.00 28 1019.5
20260510220555 60 278 2.6 5.2 0.00 0.00 0.00 29 1019.6
20260510220050 60 295 2.6 6.1 0.00 0.00 0.00 29 1019.5
20260510215547 59 276 2.6 7.0 0.00 0.00 0.00 29 1019.4
20260510215046 59 323 3.5 5.2 0.00 0.00 0.00 29 1019.5
20260510214537 60 321 4.3 7.0 0.00 0.00 0.00 28 1019.4
20260510214033 60 355 4.3 6.1 0.00 0.00 0.00 28 1019.4
20260510213531 61 275 1.7 2.6 0.00 0.00 0.00 27 1019.2
20260510213027 60 295 5.2 6.1 0.00 0.00 0.00 28 1019.4
20260510212523 59 43 2.6 5.2 0.00 0.00 0.00 30 1019.2
20260510212021 60 260 1.7 7.0 0.00 0.00 0.00 29 1019.2
20260510211517 60 282 3.5 5.2 0.00 0.00 0.00 30 1019.2
20260510211012 60 347 6.1 8.7 0.00 0.00 0.00 30 1019.2
20260510210508 60 331 1.7 7.8 0.00 0.00 0.00 30 1019.1
20260510210003 61 96 1.7 6.1 0.00 0.00 0.00 29 1019.3
20260510205457 60 254 1.7 2.6 0.00 0.00 0.00 30 1019.3
20260510204953 60 286 2.6 2.6 0.00 0.00 0.00 31 1019.5
20260510204450 60 321 4.3 6.1 0.00 0.00 0.00 31 1019.3
20260510203946 60 285 3.5 6.1 0.00 0.00 0.00 31 1019.2
20260510203443 59 330 4.3 6.1 0.00 0.00 0.00 31 1019.2
20260510202938 60 66 5.2 7.0 0.00 0.00 0.00 31 1019.4
20260510202434 60 48 2.6 7.0 0.00 0.00 0.00 30 1019.4
20260510201931 60 328 4.3 11.3 0.00 0.00 0.00 30 1019.5
20260510201428 60 346 4.3 7.0 0.00 0.00 0.00 30 1019.4
20260510200924 60 308 4.3 7.0 0.00 0.00 0.00 30 1019.5
20260510200419 61 293 4.3 6.1 0.00 0.00 0.00 31 1019.4
20260510195912 60 242 3.5 5.2 0.00 0.00 0.00 31 1019.4
20260510195410 59 286 3.5 7.8 0.00 0.00 0.00 32 1019.5
20260510194904 59 186 1.7 6.1 0.00 0.00 0.00 32 1019.4
20260510194401 60 281 2.6 5.2 0.00 0.00 0.00 31 1019.5
20260510193857 60 298 2.6 5.2 0.00 0.00 0.00 32 1019.4
20260510193352 59 225 1.7 7.0 0.00 0.00 0.00 32 1019.4
20260510192848 59 293 3.5 7.0 0.00 0.00 0.00 34 1019.4
20260510192343 57 274 2.6 5.2 0.00 0.00 0.00 34 1019.4
20260510191839 58 19 2.6 7.8 0.00 0.00 0.00 34 1019.5
20260510191335 59 249 2.6 7.8 0.00 0.00 0.00 35 1019.5
20260510190833 59 317 4.3 7.0 0.00 0.00 0.00 34 1019.4
20260510190331 59 325 2.6 5.2 0.00 0.00 0.00 34 1019.4
20260510185826 57 282 5.2 7.0 0.00 0.00 0.00 35 1019.5
20260510185324 57 314 3.5 6.1 0.00 0.00 0.00 36 1019.4
20260510184816 58 359 5.2 7.0 0.00 0.00 0.00 36 1019.5
20260510184312 57 342 3.5 7.0 0.00 0.00 0.00 36 1019.5
20260510183807 58 283 1.7 7.8 0.00 0.00 0.00 35 1019.5
20260510183302 58 290 2.6 5.2 0.00 0.00 0.00 36 1019.5
20260510182759 60 309 4.3 7.0 0.00 0.00 0.00 35 1019.5
20260510182255 60 299 1.7 6.1 0.00 0.00 0.00 36 1019.4
20260510181751 57 254 2.6 4.3 0.00 0.00 0.00 37 1019.5
20260510181248 58 307 2.6 4.3 0.00 0.00 0.00 39 1019.5
20260510180745 57 348 2.6 6.1 0.00 0.00 0.00 39 1019.6
20260510180242 56 59 3.5 6.1 0.00 0.00 0.00 42 1019.5
20260510175739 56 254 0.9 4.3 0.00 0.00 0.00 41 1019.7
20260510175234 56 357 5.2 7.8 0.00 0.00 0.00 42 1019.6
20260510174732 57 300 4.3 5.2 0.00 0.00 0.00 42 1019.6
20260510174229 56 332 3.5 5.2 0.00 0.00 0.00 41 1019.7
20260510173725 55 24 1.7 2.6 0.00 0.00 0.00 43 1019.8
20260510173221 57 315 3.5 7.0 0.00 0.00 0.00 43 1019.7
20260510172716 56 294 5.2 7.0 0.00 0.00 0.00 41 1019.7
20260510172213 56 4 2.6 7.0 0.00 0.00 0.00 43 1019.8
20260510171709 56 21 3.5 6.1 0.00 0.00 0.00 43 1019.8
20260510171207 55 275 3.5 7.0 0.00 0.00 0.00 43 1019.6
20260510170703 56 287 2.6 6.1 0.00 0.00 0.00 41 1019.7
20260510170159 56 324 2.6 5.2 0.00 0.00 0.00 43 1019.7
20260510165656 55 291 3.5 6.1 0.00 0.00 0.00 42 1019.8
20260510165151 55 304 5.2 7.8 0.00 0.00 0.00 42 1019.7
20260510164649 54 312 1.7 6.1 0.00 0.00 0.00 43 1019.9
20260510164147 54 292 2.6 5.2 0.00 0.00 0.00 43 1020.0
20260510163641 54 309 4.3 6.1 0.00 0.00 0.00 43 1020.0
20260510163137 55 312 7.8 8.7 0.00 0.00 0.00 43 1019.9
20260510162632 55 301 1.7 6.1 0.00 0.00 0.00 42 1019.9
20260510162129 55 279 2.6 7.0 0.00 0.00 0.00 42 1019.7
20260510161625 55 317 1.7 6.1 0.00 0.00 0.00 44 1019.8
20260510161121 54 50 2.6 5.2 0.00 0.00 0.00 42 1019.8
20260510160619 54 306 2.6 4.3 0.00 0.00 0.00 45 1019.7
20260510160118 54 347 2.6 5.2 0.00 0.00 0.00 45 1019.5
20260510155615 55 19 2.6 6.1 0.00 0.00 0.00 43 1019.6
20260510155111 54 306 2.6 4.3 0.00 0.00 0.00 45 1019.6
20260510154607 53 270 2.6 4.3 0.00 0.00 0.00 47 1019.5
20260510154102 53 288 0.0 4.3 0.00 0.00 0.00 46 1019.6
20260510153557 53 270 1.7 5.2 0.00 0.00 0.00 46 1019.5
20260510153054 53 313 3.5 5.2 0.00 0.00 0.00 48 1019.4
20260510152551 53 7 1.7 4.3 0.00 0.00 0.00 47 1019.4
20260510152048 52 284 1.7 4.3 0.00 0.00 0.00 49 1019.5
20260510151544 52 304 2.6 6.1 0.00 0.00 0.00 47 1019.3
20260510151042 52 302 5.2 6.1 0.00 0.00 0.00 47 1019.3
20260510150537 52 34 1.7 2.6 0.00 0.00 0.00 49 1019.4
20260510150033 51 309 1.7 1.7 0.00 0.00 0.00 49 1019.4
20260510145530 51 282 0.9 4.3 0.00 0.00 0.00 48 1019.5
20260510145026 51 24 3.5 6.1 0.00 0.00 0.00 48 1019.1
20260510144523 51 284 1.7 5.2 0.00 0.00 0.00 49 1019.5
20260510144019 51 348 2.6 4.3 0.00 0.00 0.00 49 1019.5
20260510143514 51 280 1.7 4.3 0.00 0.00 0.00 51 1019.5
20260510143011 51 316 1.7 1.7 0.00 0.00 0.00 50 1019.2
20260510142508 51 346 2.6 4.3 0.00 0.00 0.00 50 1019.4
20260510142004 51 289 0.9 4.3 0.00 0.00 0.00 51 1019.2
20260510141501 50 64 1.7 1.7 0.00 0.00 0.00 52 1019.3
20260510140959 50 272 0.0 1.7 0.00 0.00 0.00 54 1019.1
20260510140455 49 296 0.9 1.7 0.00 0.00 0.00 54 1019.3
20260510135954 49 34 0.9 1.7 0.00 0.00 0.00 55 1019.1
20260510135450 49 263 0.9 1.7 0.00 0.00 0.00 56 1019.2
20260510134947 48 12 0.0 1.7 0.00 0.00 0.00 57 1019.1
20260510134444 48 327 0.9 1.7 0.00 0.00 0.00 57 1019.3
20260510133941 48 291 0.9 1.7 0.00 0.00 0.00 57 1019.0
20260510133436 48 284 0.0 0.9 0.00 0.00 0.00 58 1019.2
20260510132932 48 5 2.6 2.6 0.00 0.00 0.00 58 1019.2
20260510132430 47 280 0.9 1.7 0.00 0.00 0.00 58 1019.2
20260510131926 47 45 2.6 2.6 0.00 0.00 0.00 59 1019.0
20260510131424 47 351 0.9 0.9 0.00 0.00 0.00 60 1019.1
20260510130920 47 41 0.9 1.7 0.00 0.00 0.00 60 1018.9
20260510130418 47 62 1.7 1.7 0.00 0.00 0.00 61 1019.0
20260510125915 47 263 0.0 0.9 0.00 0.00 0.00 65 1018.9
20260510125410 46 272 0.0 0.0 0.00 0.00 0.00 67 1018.9
20260510124908 45 272 0.0 0.0 0.00 0.00 0.00 71 1018.9
20260510124404 45 273 0.0 0.9 0.00 0.00 0.00 73 1018.9
20260510123900 44 272 0.0 0.0 0.00 0.00 0.00 75 1018.9
20260510123356 43 272 0.0 0.0 0.00 0.00 0.00 75 1018.6
20260510122853 43 272 0.0 0.0 0.00 0.00 0.00 75 1018.8
20260510122348 42 272 0.0 0.0 0.00 0.00 0.00 75 1018.7
20260510121845 42 272 0.0 0.0 0.00 0.00 0.00 74 1018.7
20260510121343 41 272 0.0 0.0 0.00 0.00 0.00 73 1018.7
20260510120839 41 273 0.0 0.9 0.00 0.00 0.00 73 1018.5
20260510120337 40 257 0.0 0.0 0.00 0.00 0.00 73 1018.4
20260510115832 40 257 0.0 0.0 0.00 0.00 0.00 73 1018.4
20260510115329 39 257 0.0 0.0 0.00 0.00 0.00 73 1018.5
20260510114825 39 257 0.0 0.0 0.00 0.00 0.00 73 1018.2
20260510114323 39 256 0.0 0.0 0.00 0.00 0.00 73 1018.0
20260510113817 38 256 0.0 0.0 0.00 0.00 0.00 73 1017.9
20260510113314 38 256 0.0 0.9 0.00 0.00 0.00 73 1018.1
20260510112811 38 256 0.0 0.0 0.00 0.00 0.00 73 1017.9
20260510112308 38 262 0.0 0.9 0.00 0.00 0.00 73 1017.8
20260510111804 38 218 0.0 0.0 0.00 0.00 0.00 73 1017.8
20260510111301 37 218 0.0 0.9 0.00 0.00 0.00 74 1017.7
20260510110800 37 218 0.0 0.0 0.00 0.00 0.00 74 1017.6
20260510110258 37 217 0.0 1.7 0.00 0.00 0.00 74 1017.5
20260510105758 37 213 0.9 1.7 0.00 0.00 0.00 75 1017.3
20260510105253 37 216 0.0 0.9 0.00 0.00 0.00 76 1017.6
20260510104750 37 216 0.9 0.9 0.00 0.00 0.00 76 1017.5
20260510104248 36 216 0.9 0.9 0.00 0.00 0.00 76 1017.3
20260510103744 36 216 0.9 0.9 0.00 0.00 0.00 76 1017.6
20260510103241 37 216 0.9 0.9 0.00 0.00 0.00 75 1017.3
20260510102740 37 216 0.0 0.0 0.00 0.00 0.00 75 1017.2
20260510102236 37 216 0.0 0.0 0.00 0.00 0.00 74 1017.2
20260510101734 37 216 0.0 0.0 0.00 0.00 0.00 74 1017.2
20260510101233 37 216 0.0 0.0 0.00 0.00 0.00 74 1016.9
20260510100728 37 215 0.9 0.9 0.00 0.00 0.00 73 1016.8
20260510100226 37 216 0.0 0.9 0.00 0.00 0.00 73 1016.8
20260510095721 37 216 0.0 0.0 0.00 0.00 0.00 74 1016.7
20260510095217 37 216 0.0 0.0 0.00 0.00 0.00 73 1016.6
20260510094715 37 215 0.0 0.0 0.00 0.00 0.00 72 1016.5
20260510094211 37 215 0.0 0.0 0.00 0.00 0.00 72 1016.6
20260510093707 38 215 0.0 0.0 0.00 0.00 0.00 72 1016.4
20260510093205 38 215 0.0 0.0 0.00 0.00 0.00 72 1016.2
20260510092701 38 215 0.9 0.9 0.00 0.00 0.00 72 1016.2
20260510092157 38 215 0.0 0.0 0.00 0.00 0.00 72 1016.3
20260510091652 38 215 0.0 0.9 0.00 0.00 0.00 71 1016.2
20260510091149 38 215 0.0 0.0 0.00 0.00 0.00 71 1016.2
20260510090646 38 215 0.0 0.9 0.00 0.00 0.00 71 1016.0
20260510090143 38 215 0.0 0.9 0.00 0.00 0.00 70 1016.1
20260510085638 38 215 0.0 0.0 0.00 0.00 0.00 70 1016.1
20260510085133 38 215 0.0 0.9 0.00 0.00 0.00 70 1016.0
20260510084630 39 215 0.9 0.9 0.00 0.00 0.00 69 1016.0
20260510084126 39 215 0.9 0.9 0.00 0.00 0.00 69 1015.9
20260510083623 39 215 0.9 1.7 0.00 0.00 0.00 68 1015.7
20260510083119 39 216 0.9 0.9 0.00 0.00 0.00 66 1015.7
20260510082610 39 216 0.9 0.9 0.00 0.00 0.00 66 1015.7
20260510082105 40 217 0.0 0.9 0.00 0.00 0.00 66 1015.7
20260510081601 40 218 0.0 0.9 0.00 0.00 0.00 66 1015.5
20260510081057 40 217 0.9 0.9 0.00 0.00 0.00 66 1015.7
20260510080556 40 217 0.0 0.9 0.00 0.00 0.00 66 1015.6
20260510080053 40 217 0.9 0.9 0.00 0.00 0.00 65 1015.2
20260510075550 41 219 0.9 0.9 0.00 0.00 0.00 64 1015.5
20260510075047 41 219 0.9 0.9 0.00 0.00 0.00 63 1015.5
20260510074545 41 219 0.9 0.9 0.00 0.00 0.00 63 1015.4
20260510074039 41 220 0.0 0.0 0.00 0.00 0.00 63 1015.4
20260510073536 41 220 0.0 0.0 0.00 0.00 0.00 64 1015.4
20260510073034 42 219 0.9 0.9 0.00 0.00 0.00 63 1015.4
20260510072530 42 219 0.9 0.9 0.00 0.00 0.00 61 1015.3
20260510072025 42 220 0.9 0.9 0.00 0.00 0.00 60 1015.4
20260510071522 42 220 0.9 0.9 0.00 0.00 0.00 60 1015.3
20260510071020 43 222 0.0 0.9 0.00 0.00 0.00 59 1015.3
20260510070517 43 241 0.9 0.9 0.00 0.00 0.00 58 1015.3
20260510070013 43 241 0.9 0.9 0.00 0.00 0.00 59 1015.2
20260510065510 43 257 0.9 0.9 0.00 0.00 0.00 58 1015.3
20260510065006 44 272 0.0 0.9 0.00 0.00 0.00 57 1015.4
20260510064503 44 272 0.0 0.0 0.00 0.00 0.00 54 1015.3
20260510064000 44 273 0.0 0.0 0.00 0.00 0.00 54 1015.1
20260510063456 44 272 0.0 0.0 0.00 0.00 0.00 55 1015.3
20260510062954 44 272 0.0 0.0 0.00 0.00 0.00 54 1015.2
20260510062449 45 273 0.0 0.0 0.00 0.00 0.00 54 1015.2
20260510061944 45 273 0.0 0.0 0.00 0.00 0.00 51 1015.1
20260510061441 45 273 0.0 0.0 0.00 0.00 0.00 51 1015.3
20260510060937 46 273 0.0 0.0 0.00 0.00 0.00 51 1015.3
20260510060435 46 273 0.0 0.0 0.00 0.00 0.00 51 1015.3
20260510055930 46 273 0.0 0.0 0.00 0.00 0.00 51 1015.1
20260510055426 46 273 0.0 0.0 0.00 0.00 0.00 51 1015.2
20260510054919 46 273 0.0 0.0 0.00 0.00 0.00 52 1015.2
20260510054414 47 273 0.0 0.0 0.00 0.00 0.00 51 1015.0
20260510053909 47 273 0.0 0.0 0.00 0.00 0.00 51 1015.1
20260510053405 48 273 0.0 0.0 0.00 0.00 0.00 49 1014.9
20260510052902 48 273 0.0 0.0 0.00 0.00 0.00 49 1014.6
20260510052357 48 273 0.0 0.9 0.00 0.00 0.00 49 1014.8
20260510051854 49 273 0.9 0.9 0.00 0.00 0.00 48 1014.9
20260510051350 49 274 0.0 0.9 0.00 0.00 0.00 47 1015.0
20260510050847 50 274 0.0 0.9 0.00 0.00 0.00 46 1014.9
20260510050344 50 276 0.0 0.9 0.00 0.00 0.00 44 1015.0
20260510045841 50 263 0.9 0.9 0.00 0.00 0.00 44 1014.8
20260510045338 50 292 0.9 1.7 0.00 0.00 0.00 43 1014.8
20260510044835 50 299 1.7 2.6 0.00 0.00 0.00 43 1014.8
20260510044332 50 279 2.6 4.3 0.00 0.00 0.00 43 1014.7
20260510043828 50 277 0.9 1.7 0.00 0.00 0.00 44 1014.7
20260510043324 50 286 0.9 1.7 0.00 0.00 0.00 45 1014.5
20260510042822 50 271 0.0 1.7 0.00 0.00 0.00 45 1014.5
20260510042318 50 280 0.0 0.9 0.00 0.00 0.00 46 1014.6
20260510041814 50 280 0.0 0.0 0.00 0.00 0.00 46 1014.6
20260510041312 50 280 0.0 0.9 0.00 0.00 0.00 45 1014.4
20260510040809 51 280 0.0 0.9 0.00 0.00 0.00 44 1014.4
20260510040305 51 280 0.0 0.0 0.00 0.00 0.00 43 1014.0
20260510035801 51 281 0.9 0.9 0.00 0.00 0.00 43 1014.2
20260510035257 51 281 0.9 0.9 0.00 0.00 0.00 43 1014.1
20260510034753 51 281 0.0 0.9 0.00 0.00 0.00 43 1014.1
20260510034251 51 280 0.0 0.0 0.00 0.00 0.00 43 1014.0
20260510033747 51 281 0.0 0.9 0.00 0.00 0.00 42 1014.0
20260510033244 52 280 0.0 0.0 0.00 0.00 0.00 41 1014.1
20260510032740 52 280 0.0 0.9 0.00 0.00 0.00 41 1014.0
20260510032237 53 280 0.0 0.9 0.00 0.00 0.00 40 1013.9
20260510031732 53 280 0.0 0.9 0.00 0.00 0.00 40 1013.9
20260510031228 53 282 0.9 0.9 0.00 0.00 0.00 39 1013.8
20260510030727 53 273 0.0 0.9 0.00 0.00 0.00 38 1013.8
20260510030225 54 277 0.0 0.9 0.00 0.00 0.00 38 1013.4
20260510025722 54 281 0.0 0.9 0.00 0.00 0.00 37 1013.3
20260510025214 54 268 0.9 1.7 0.00 0.00 0.00 37 1013.2
20260510024711 54 270 0.0 0.9 0.00 0.00 0.00 38 1013.3
20260510024207 54 290 0.0 1.7 0.00 0.00 0.00 36 1013.0
20260510023703 54 311 0.9 1.7 0.00 0.00 0.00 35 1012.9
20260510023200 54 284 1.7 2.6 0.00 0.00 0.00 35 1012.6
20260510022656 54 280 0.9 1.7 0.00 0.00 0.00 35 1012.5
20260510022150 54 276 0.9 1.7 0.00 0.00 0.00 35 1012.5
20260510021645 54 258 0.0 0.9 0.00 0.00 0.00 36 1012.3
20260510021138 54 303 1.7 4.3 0.00 0.00 0.00 36 1012.2
20260510020632 54 279 0.0 0.9 0.00 0.00 0.00 36 1012.3
20260510020127 54 290 0.9 1.7 0.00 0.00 0.00 36 1012.1
20260510015624 54 279 0.9 0.9 0.00 0.00 0.00 36 1012.0
20260510015120 54 276 0.0 0.9 0.00 0.00 0.00 36 1011.9
20260510014615 55 283 0.9 2.6 0.00 0.00 0.00 35 1011.7
20260510014113 55 279 0.9 0.9 0.00 0.00 0.00 34 1011.8
20260510013608 55 296 0.9 1.7 0.00 0.00 0.00 34 1011.5
20260510013104 56 279 0.9 1.7 0.00 0.00 0.00 33 1011.6
20260510012603 56 268 0.0 0.9 0.00 0.00 0.00 33 1011.4
20260510012100 56 282 0.0 1.7 0.00 0.00 0.00 32 1011.3
20260510011559 56 287 0.9 1.7 0.00 0.00 0.00 32 1011.3
20260510011055 57 283 0.9 2.6 0.00 0.00 0.00 31 1011.1
20260510010552 57 249 0.9 5.2 0.00 0.00 0.00 30 1011.1
20260510010049 57 317 2.6 6.1 0.00 0.00 0.00 30 1011.2
20260510005544 57 293 4.3 5.2 0.00 0.00 0.00 31 1011.0
20260510005042 57 306 3.5 7.0 0.00 0.00 0.00 30 1010.8
20260510004540 58 298 4.3 7.0 0.00 0.00 0.00 30 1011.0
20260510004038 58 330 2.6 5.2 0.00 0.00 0.00 30 1010.9
20260510003534 58 290 3.5 5.2 0.00 0.00 0.00 29 1010.9
20260510003030 58 308 1.7 5.2 0.00 0.00 0.00 29 1010.8
20260510002525 58 277 3.5 12.2 0.00 0.00 0.00 30 1010.6
20260510002023 58 269 1.7 4.3 0.00 0.00 0.00 30 1010.6
20260510001520 59 331 4.3 6.1 0.00 0.00 0.00 31 1010.6
20260510001018 59 271 0.9 4.3 0.00 0.00 0.00 32 1010.4
20260510000513 59 61 3.5 4.3 0.00 0.00 0.00 31 1010.4
20260510000010 59 15 1.7 2.6 0.00 0.00 0.00 31 1010.4
20260509235507 59 305 6.1 8.7 0.00 0.00 0.00 30 1010.3
20260509235003 59 358 1.7 5.2 0.00 0.00 0.00 31 1010.4
20260509234500 59 273 4.3 7.0 0.00 0.00 0.00 30 1010.3
20260509233958 59 1 2.6 2.6 0.00 0.00 0.00 30 1010.3